FW9915 Weather Reports


Display with metric or nautical units.
time (UTC)temp
F
wind
direction
speed
MPH
gust
MPH
rain 1hr
in
rain 24hr
in
rain mn
in
humidity
%
barometer
mb
20260507175549 52 176 2.0 7.0 0.00 0.00 0.00 97 1016.8
20260507174524 52 199 2.0 4.0 0.00 0.00 0.00 97 1016.7
20260507173524 52 221 3.0 4.0 0.00 0.00 0.00 97 1016.7
20260507172524 52 158 2.0 7.0 0.00 0.00 0.00 97 1016.6
20260507171524 52 150 2.0 7.0 0.00 0.00 0.00 97 1016.6
20260507170524 53 197 2.0 4.0 0.00 0.00 0.00 97 1016.7
20260507165536 53 168 3.0 7.0 0.00 0.00 0.00 96 1016.6
20260507164524 53 192 3.0 7.0 0.00 0.00 0.00 95 1016.7
20260507163524 53 204 2.0 7.0 0.00 0.00 0.00 95 1016.8
20260507162524 53 210 2.0 4.0 0.00 0.00 0.00 95 1016.8
20260507161524 54 174 2.0 4.0 0.00 0.00 0.00 94 1016.8
20260507160524 53 131 3.0 9.0 0.00 0.00 0.00 94 1016.9
20260507155624 54 180 3.0 7.0 0.00 0.00 0.00 94 1016.9
20260507154524 54 145 2.0 9.0 0.00 0.00 0.00 93 1016.9
20260507153524 54 167 3.0 7.0 0.00 0.00 0.00 94 1016.9
20260507152607 54 132 4.0 7.0 0.00 0.00 0.00 93 1017.0
20260507151620 54 131 4.0 7.0 0.00 0.00 0.00 92 1017.0
20260507150544 54 134 6.0 11.0 0.00 0.00 0.00 92 1017.0
20260507145524 54 139 6.0 11.0 0.00 0.00 0.00 92 1017.1
20260507144524 54 127 6.0 9.0 0.00 0.00 0.00 91 1017.2
20260507143524 54 133 3.0 7.0 0.00 0.00 0.00 92 1017.3
20260507142548 54 135 5.0 9.0 0.00 0.00 0.00 92 1017.3
20260507141524 54 134 5.0 9.0 0.00 0.00 0.00 92 1017.3
20260507140524 54 149 5.0 9.0 0.00 0.00 0.00 92 1017.4
20260507135524 55 148 4.0 9.0 0.00 0.00 0.00 91 1017.4
20260507134524 54 134 6.0 11.0 0.00 0.00 0.00 90 1017.4
20260507133524 55 149 6.0 15.0 0.00 0.00 0.00 88 1017.4
20260507132536 55 138 6.0 9.0 0.00 0.00 0.00 89 1017.4
20260507131600 56 148 5.0 9.0 0.00 0.00 0.00 86 1017.5
20260507130524 56 217 4.0 11.0 0.00 0.00 0.00 86 1017.5
20260507125524 55 168 4.0 9.0 0.00 0.00 0.00 87 1017.6
20260507124524 55 186 4.0 9.0 0.00 0.00 0.00 88 1017.6
20260507123524 54 141 7.0 11.0 0.00 0.00 0.00 88 1017.7
20260507122524 55 132 7.0 11.0 0.00 0.00 0.00 87 1017.8
20260507121524 55 129 6.0 9.0 0.00 0.00 0.00 87 1017.9
20260507120548 54 138 6.0 11.0 0.00 0.00 0.00 87 1018.0
20260507115524 55 128 6.0 11.0 0.00 0.00 0.00 86 1018.1
20260507114525 55 168 4.0 9.0 0.00 0.00 0.00 88 1018.1
20260507113537 55 138 6.0 11.0 0.00 0.00 0.00 87 1018.1
20260507112524 56 206 5.0 9.0 0.00 0.00 0.00 85 1018.1
20260507111608 55 130 6.0 9.0 0.00 0.00 0.00 88 1018.1
20260507110536 55 145 6.0 15.0 0.00 0.00 0.00 86 1018.1
20260507105544 55 137 6.0 11.0 0.00 0.00 0.00 87 1018.1
20260507104524 55 128 6.0 11.0 0.00 0.00 0.00 87 1018.1
20260507103524 54 130 7.0 17.0 0.00 0.00 0.00 87 1018.2
20260507102544 55 177 5.0 11.0 0.00 0.00 0.00 87 1018.2
20260507101545 54 133 6.0 11.0 0.00 0.00 0.00 87 1018.2
20260507100557 54 179 5.0 11.0 0.00 0.00 0.00 87 1018.2
20260507095524 54 155 5.0 9.0 0.00 0.00 0.00 88 1018.2
20260507094524 54 138 6.0 11.0 0.00 0.00 0.00 88 1018.2
20260507093525 55 150 4.0 11.0 0.00 0.00 0.00 87 1018.2
20260507092524 55 160 5.0 11.0 0.00 0.00 0.00 88 1018.1
20260507091524 54 121 6.0 9.0 0.00 0.00 0.00 89 1018.0
20260507090524 54 157 5.0 11.0 0.00 0.00 0.00 88 1018.1
20260507085544 55 135 4.0 9.0 0.00 0.00 0.00 87 1018.2
20260507084524 54 172 5.0 9.0 0.00 0.00 0.00 88 1018.1
20260507083544 55 190 4.0 11.0 0.00 0.00 0.00 87 1018.1
20260507082536 55 167 4.0 9.0 0.00 0.00 0.00 86 1018.0
20260507081537 54 186 5.0 9.0 0.00 0.00 0.00 86 1017.9
20260507080524 53 138 6.0 11.0 0.00 0.00 0.00 89 1018.0
20260507075609 54 145 5.0 9.0 0.00 0.00 0.00 87 1018.0
20260507074524 54 191 5.0 9.0 0.00 0.00 0.00 87 1018.0
20260507073524 54 148 5.0 9.0 0.00 0.00 0.00 88 1018.0
20260507072524 54 187 5.0 9.0 0.00 0.00 0.00 87 1018.0
20260507071524 54 153 5.0 11.0 0.00 0.00 0.00 89 1017.9
20260507070544 54 146 5.0 11.0 0.00 0.00 0.00 88 1018.0
20260507065524 54 194 4.0 9.0 0.00 0.00 0.00 89 1018.0
20260507064525 54 180 5.0 9.0 0.00 0.00 0.00 88 1018.0
20260507063536 54 191 5.0 11.0 0.00 0.00 0.00 86 1018.0
20260507062536 54 194 5.0 9.0 0.00 0.00 0.00 86 1018.0
20260507061545 55 181 4.0 9.0 0.00 0.00 0.00 85 1017.9
20260507060536 54 197 5.0 9.0 0.00 0.00 0.00 86 1017.8
20260507055525 54 186 5.0 9.0 0.00 0.00 0.00 86 1017.7
20260507054525 54 202 5.0 9.0 0.00 0.00 0.00 86 1017.6
20260507053556 55 180 4.0 9.0 0.00 0.00 0.00 86 1017.6
20260507052544 55 202 5.0 11.0 0.00 0.00 0.00 85 1017.5
20260507051537 54 187 4.0 9.0 0.00 0.00 0.00 88 1017.4
20260507050616 54 183 4.0 7.0 0.00 0.00 0.00 87 1017.4
20260507045525 53 197 4.0 9.0 0.00 0.00 0.00 88 1017.4
20260507044524 53 180 4.0 9.0 0.00 0.00 0.00 89 1017.2
20260507043524 52 192 3.0 7.0 0.00 0.00 0.00 91 1017.1
20260507042544 51 157 4.0 7.0 0.00 0.00 0.00 91 1017.1
20260507041645 51 192 4.0 7.0 0.00 0.00 0.00 91 1016.9
20260507040524 51 193 4.0 9.0 0.00 0.00 0.00 92 1016.9
20260507035536 51 157 3.0 7.0 0.00 0.00 0.00 92 1017.0
20260507034524 51 192 3.0 7.0 0.00 0.00 0.00 92 1017.0
20260507033524 51 190 3.0 7.0 0.00 0.00 0.00 92 1016.8
20260507032524 51 192 4.0 9.0 0.00 0.00 0.00 93 1016.8
20260507031524 51 187 4.0 7.0 0.00 0.00 0.00 93 1016.7
20260507030524 51 189 4.0 9.0 0.00 0.00 0.00 94 1016.7
20260507025524 51 195 3.0 7.0 0.00 0.00 0.00 95 1016.7
20260507024536 51 200 5.0 7.0 0.00 0.00 0.00 95 1016.7
20260507023545 51 203 4.0 9.0 0.00 0.00 0.00 95 1016.6
20260507022525 51 167 3.0 7.0 0.00 0.00 0.00 96 1016.5
20260507021549 51 204 3.0 7.0 0.00 0.00 0.00 96 1016.5
20260507020544 50 201 2.0 7.0 0.00 0.00 0.00 96 1016.5
20260507015544 51 193 3.0 7.0 0.00 0.00 0.00 95 1016.5
20260507014524 51 196 2.0 7.0 0.00 0.00 0.00 95 1016.5
20260507013524 51 205 2.0 4.0 0.00 0.00 0.00 94 1016.3
20260507012524 51 187 2.0 7.0 0.00 0.00 0.00 94 1016.4
20260507011524 51 201 4.0 9.0 0.00 0.00 0.00 94 1016.4
20260507010536 51 183 5.0 7.0 0.00 0.00 0.00 95 1016.4
20260507005524 51 207 3.0 7.0 0.00 0.00 0.00 95 1016.3
20260507004524 51 207 2.0 7.0 0.00 0.00 0.00 95 1016.3
20260507003524 51 201 4.0 7.0 0.00 0.00 0.00 96 1016.3
20260507002524 51 176 2.0 4.0 0.00 0.00 0.00 96 1016.3
20260507001536 50 200 2.0 4.0 0.00 0.00 0.00 96 1016.3
20260507000524 50 188 4.0 7.0 0.00 0.00 0.00 95 1016.3
20260506235536 50 185 4.0 7.0 0.00 0.00 0.00 95 1016.3
20260506234524 51 188 2.0 4.0 0.00 0.00 0.00 94 1016.3
20260506233536 51 192 2.0 7.0 0.00 0.00 0.00 94 1016.4
20260506232536 51 174 3.0 7.0 0.00 0.00 0.00 93 1016.4
20260506231525 51 185 5.0 11.0 0.00 0.00 0.00 94 1016.5
20260506230524 51 202 5.0 9.0 0.00 0.00 0.00 94 1016.6
20260506225525 51 198 5.0 9.0 0.00 0.00 0.00 93 1016.6
20260506224524 51 200 6.0 9.0 0.00 0.00 0.00 93 1016.7
20260506223536 51 196 3.0 9.0 0.00 0.00 0.00 93 1016.7
20260506222525 51 192 5.0 9.0 0.00 0.00 0.00 93 1016.7
20260506221524 51 194 4.0 11.0 0.00 0.00 0.00 93 1016.8
20260506220524 51 206 3.0 4.0 0.00 0.00 0.00 93 1016.9
20260506215525 51 184 3.0 7.0 0.00 0.00 0.00 93 1016.8
20260506214545 51 162 2.0 7.0 0.00 0.00 0.00 93 1016.9
20260506213524 51 186 3.0 4.0 0.00 0.00 0.00 94 1016.8
20260506212556 51 191 2.0 4.0 0.00 0.00 0.00 94 1016.8
20260506211536 51 172 3.0 7.0 0.00 0.00 0.00 94 1016.7
20260506210525 51 173 4.0 9.0 0.00 0.00 0.00 93 1016.7
20260506205537 51 194 5.0 9.0 0.00 0.00 0.00 94 1016.7
20260506204524 51 185 4.0 9.0 0.00 0.00 0.00 94 1016.7
20260506203545 51 181 5.0 7.0 0.00 0.00 0.00 94 1016.8
20260506202525 51 194 4.0 9.0 0.00 0.00 0.00 95 1016.8
20260506201524 51 204 4.0 9.0 0.00 0.00 0.00 95 1016.7
20260506200524 51 194 4.0 7.0 0.00 0.00 0.00 95 1016.7
20260506195544 51 186 4.0 9.0 0.00 0.00 0.00 95 1016.7
20260506194524 51 201 3.0 5.0 0.00 0.00 0.00 96 1016.7
20260506193545 51 193 3.0 7.0 0.00 0.00 0.00 96 1016.6
20260506192536 51 189 4.0 7.0 0.00 0.00 0.00 96 1016.6
20260506191645 51 189 4.0 7.0 0.00 0.00 0.00 97 1016.5
20260506190536 51 190 3.0 7.0 0.00 0.00 0.00 97 1016.5
20260506185524 51 181 4.0 7.0 0.00 0.00 0.00 97 1016.4
20260506184524 51 189 3.0 7.0 0.00 0.00 0.00 97 1016.3
20260506183524 51 173 2.0 4.0 0.00 0.00 0.00 97 1016.3
20260506182524 51 179 3.0 7.0 0.00 0.00 0.00 97 1016.3
20260506181525 51 194 2.0 4.0 0.00 0.00 0.00 97 1016.2
20260506180525 51 187 1.0 4.0 0.00 0.00 0.00 97 1016.1